{"data":{"norad_id":52540,"intl_designator":"2022-051H","name":"STARLINK-3940","alt_names":[],"object_type":"PAYLOAD","status":"ACTIVE","operator":null,"country":"US","launch_date":"2022-05-13","launch_site_code":"AFWTR","launch_vehicle":null,"mission":null,"orbit_class":"UNKNOWN","rcs_meters":null,"size_class":null,"mass_kg":null,"dimensions":null,"purposes":["comms"],"wikipedia_slug":null,"has_3d_model":false,"image_url":null,"decayed_at":null,"tle_current":{"epoch":"2026-09-19T18:51:26.824896Z","epoch_age_seconds":125027,"freshness":"FRESH","line1":"1 52540U 22051H   26262.78572714  .00000254  00000+0  18667-4 0  9997","line2":"2 52540  53.1605 325.4016 0001163  71.4648 288.6481 15.34389063240915","mean_motion":15.34389063,"eccentricity":0.0001163,"inclination_deg":53.1605,"raan_deg":325.4016,"arg_perigee_deg":71.4648,"mean_anomaly_deg":288.6481,"bstar":1.8667e-5,"rev_number":24091,"period_min":93.848427020494,"perigee_km":461.94015396853,"apogee_km":463.53134096959,"semimajor_km":6840.8727474691,"source":"CELESTRAK","updated_at":"2026-09-20T09:00:40.059465Z"}}}